• Processing (Info)

  • MPEC 2013-T76 : COMET P/2013 T1 (PANSTARRS)

    The following Minor Planet Electronic Circular may be linked-to from your own Web pages, but must not otherwise be redistributed electronically.

    A form allowing access to any MPEC is at the bottom of this page.


    Read MPEC 2013-T75 Read MPEC 2013-T77


    M.P.E.C. 2013-T76                                Issued 2013 Oct. 8, 21:00 UT
    
         The Minor Planet Electronic Circulars contain information on unusual
             minor planets and routine data on comets.  They are published
       on behalf of Commission 20 of the International Astronomical Union by the
              Minor Planet Center, Smithsonian Astrophysical Observatory,
                              Cambridge, MA 02138, U.S.A.
    
                 Prepared using the Tamkin Foundation Computer Network
    
                                  MPC@CFA.HARVARD.EDU
                URL http://www.minorplanetcenter.net/    ISSN 1523-6714
    
                              COMET P/2013 T1 (PANSTARRS)
    
    Observations:
        PK13T010  C2013 09 13.40671 01 43 47.69 +12 33 35.7          20.0 TqET076G96
        PK13T010  C2013 09 13.41581 01 43 47.35 +12 33 42.4          20.7 TqET076G96
        PK13T010  C2013 09 13.42488 01 43 47.00 +12 33 49.5          20.7 TqET076G96
        PK13T010  C2013 10 04.25379 01 25 43.07 +16 45 41.2          20.2 TqET076G96
        PK13T010  C2013 10 04.26076 01 25 42.60 +16 45 45.1          20.5 TqET076G96
        PK13T010  C2013 10 04.26782 01 25 42.12 +16 45 49.9          20.5 TqET076G96
        PK13T010  C2013 10 04.27480 01 25 41.63 +16 45 54.0          20.4 TqET076G96
        PK13T010  C2013 10 05.37396 01 24 30.211+16 57 31.87         21.8 TLET076F51
        PK13T010  C2013 10 05.38756 01 24 29.312+16 57 40.46         21.3 TLET076F51
        PK13T010  C2013 10 05.40120 01 24 28.384+16 57 48.89         21.6 TLET076F51
        PK13T010  C2013 10 05.41483 01 24 27.452+16 57 57.77         21.5 TLET076F51
        PK13T010 HC2013 10 06.23475 01 23 33.65 +17 06 26.5          20.9 ToET076291
        PK13T010 HC2013 10 06.24193 01 23 33.18 +17 06 31.1          20.9 ToET076291
        PK13T010 HC2013 10 06.24913 01 23 32.73 +17 06 35.7          21.0 ToET076291
        PK13T010 KC2013 10 06.30974401 23 28.53 +17 07 12.9          21.5 TqET076V37
        PK13T010 KC2013 10 06.31582401 23 28.10 +17 07 16.7          21.6 TqET076V37
        PK13T010 KC2013 10 06.32394501 23 27.55 +17 07 21.9          21.4 TqET076V37
        PK13T010  C2013 10 08.14880 01 21 26.74 +17 25 50.0          20.3 TtET076H01
        PK13T010  C2013 10 08.15767 01 21 26.13 +17 25 55.4          20.0 TtET076H01
        PK13T010  C2013 10 08.16064 01 21 25.94 +17 25 57.3          19.9 TtET076H01
        PK13T010  C2013 10 08.16885 01 21 25.37 +17 26 02.3          20.1 TtET076H01
        PK13T010 |C2013 10 08.20970 01 21 22.59 +17 26 27.3                cET076H06
        PK13T010 |C2013 10 08.21130 01 21 22.48 +17 26 28.3                cET076H06
        PK13T010 |C2013 10 08.21289 01 21 22.39 +17 26 28.7          20.3 TcET076H06
        PK13T010 KC2013 10 08.29591701 21 16.49 +17 27 17.8          20.9 TuET076H21
        PK13T010 KC2013 10 08.30708001 21 15.70 +17 27 24.2          21.0 TuET076H21
        PK13T010 KC2013 10 08.31843601 21 14.93 +17 27 31.0          21.0 TuET076H21
        PK13T010 5C2013 10 08.58742 01 20 57.12 +17 30 18.5          20.6 TtET076E10
        PK13T010 5C2013 10 08.59063 01 20 56.90 +17 30 20.8          20.7 TtET076E10
    
    Observer details:
    291 LPL/Spacewatch II.  Observer R. S. McMillan.  1.8-m f/2.7 reflector + CCD.
    E10 Siding Spring-Faulkes Telescope South.  Observer R. Miles.  2.0-m f/10.0
        Ritchey-Chretien + CCD.
    F51 Pan-STARRS 1, Haleakala.  Observers N. Primak, A. Schultz. T. Goggia,
        M. Willman.  Measurer PS1 Science Consortium.  1.8-m Ritchey-Chretien
        + CCD.
    G96 Mt. Lemmon Survey.  Observers J. A. Johnson, R. A. Kowalski.  Measurers
        A. Boattini, E. J. Christensen, A. R. Gibbs, A. D. Grauer, R. E. Hill,
        J. A. Johnson, R. A. Kowalski, S. M. Larson, F. C. Shelly.  1.5-m
        reflector + CCD.
    H01 Magdalena Ridge Observatory, Socorro.  Observer W. H. Ryan.  2.4-m f/8.9
        reflector + CCD.
    H06 iTelescope Observatory, Mayhill.  Observer H. Sato.  0.51-m f/6.8
        astrograph + CCD + f/4.5 focal reducer.
    H21 Astronomical Research Observatory, Westfield.  Observer R. Holmes.
        Measurers R. Holmes, T. Linder, S. Foglia, L. Buzzi, T. Vorobjov.  0.81-m
        f/4.0 astrograph + CCD.
    V37 McDonald Observatory-LCOGT ELP.  Observer T. Lister.  1.0-m f/8
        Ritchey-Chretien + CCD.
    
    Orbital elements:
        P/2013 T1 (PANSTARRS)
    T 2013 July 31.31611 TT                                 MPC
    q   2.2116656            (2000.0)            P               Q
    n   0.06919055     Peri.  345.86872     +0.99391333     +0.08220396
    a   5.8763125      Node    10.29327     -0.00213293     +0.67996708
    e   0.6236304      Incl.   24.23254     -0.11014420     +0.72862012
    P  14.2
    From 29 observations 2013 Sept. 13-Oct. 8.
    
    Ephemeris:
        P/2013 T1 (PANSTARRS)
    Date    TT    R. A. (2000) Decl.     Delta      r     Elong.  Phase   m1    m2
    2013 09 08    01 46 31.7 +11 21 30   1.3984  2.2396   136.5    18.0  20.7
    ...
    2013 09 23    01 36 46.6 +14 36 07   1.3299  2.2650   151.9    12.0  20.7
    ...
    2013 10 01    01 29 09.1 +16 10 11   1.3144  2.2817   160.2     8.6  20.7
    ...
    2013 10 07    01 22 42.9 +17 14 18   1.3135  2.2956   165.8     6.1  20.7
    2013 10 08    01 21 36.4 +17 24 23   1.3143  2.2980   166.6     5.8  20.7
    2013 10 09    01 20 29.5 +17 34 17   1.3154  2.3005   167.3     5.5  20.7
    ...
    2013 10 15    01 13 45.6 +18 29 53   1.3277  2.3159   169.8     4.4  20.8
    ...
    2013 10 23    01 05 04.9 +19 33 44   1.3593  2.3381   166.4     5.7  20.9
    ...
    2013 11 07    00 51 52.5 +21 05 39   1.4637  2.3847   152.0    11.2  21.1
    
    Gareth V. Williams           (C) Copyright 2013 MPC           M.P.E.C. 2013-T76
    

    Read MPEC 2013-T75 Read MPEC 2013-T77


    MPEC number:

    Enter an MPEC number in one of the following forms:

    • 1997-B01 (the full form)
    • J97B01 (the packed version of the full form)
    • B01 (the abbreviated form)